Harrisburg, PA

2:31 AM EDT on April 28, 2017 (GMT -0400)
Capital City

Weather History for KCXY - March, 2012

Change the Weather History Date:

Tuesday, March 27, 2012

  Actual Average Record
Temperature  
Mean Temperature 43 °F -  
Max Temperature 53 °F 54 °F 85 °F (1998)
Min Temperature 33 °F 35 °F 19 °F (2001)
Degree Days  
Heating Degree Days 22    
Moisture  
Dew Point 11 °F    
Average Humidity 29    
Maximum Humidity 38    
Minimum Humidity 18    
Precipitation  
Precipitation 0.00 in - - ()
Sea Level Pressure  
Sea Level Pressure 30.29 in    
Wind  
Wind Speed 9 mph (North)    
Max Wind Speed 15 mph    
Max Gust Speed 23 mph    
Visibility 10 miles    
Events      
Averages and records for this station are not official NWS values.
T = Trace of Precipitation, MM = Missing Value Source: NWS Daily Summary

Daily Weather History Graph

Daily Weather History Graph

Search for Another Location

Airport or City:

Trip Planner

Search our weather history database for the weather conditions in past years. The results will help you decide how hot, cold, wet, or windy it might be!

Date:

Astronomy

Mar. 27, 2012 Rise Set
Actual Time 6:58 AM EDT 7:27 PM EDT
Civil Twilight 6:31 AM EDT 7:54 PM EDT
Nautical Twilight 5:59 AM EDT 8:26 PM EDT
Astronomical Twilight 5:26 AM EDT 8:59 PM EDT
Moon 9:27 AM EDT (3/27) No Moon Set
Length of Visible Light 13h 23m
Length of Day
12h 28m
Waxing Crescent, 22% of the Moon is Illuminated
Mar 27
Waxing Crescent
Mar 30
First Quarter
Apr 6
Full
Apr 13
Last Quarter
Apr 21
New

Hourly Weather History & Observations

Time (EDT) Temp. Windchill Dew Point Humidity Pressure Visibility Wind Dir Wind Speed Gust Speed Precip Events Conditions
12:56 AM 37.9 °F 29.6 °F 8.1 °F 29% 30.26 in 10.0 mi North 13.8 mph 19.6 mph N/A   Clear
1:56 AM 37.0 °F 28.5 °F 7.0 °F 29% 30.27 in 10.0 mi North 13.8 mph 19.6 mph N/A   Clear
2:56 AM 36.0 °F 28.5 °F 8.1 °F 31% 30.28 in 10.0 mi North 10.4 mph 16.1 mph N/A   Clear
3:56 AM 35.1 °F 26.9 °F 8.1 °F 33% 30.29 in 10.0 mi NNW 11.5 mph 23.0 mph N/A   Clear
4:56 AM 34.0 °F 26.0 °F 10.0 °F 37% 30.30 in 10.0 mi NW 10.4 mph - N/A   Clear
5:56 AM 34.0 °F 24.2 °F 9.0 °F 35% 30.32 in 10.0 mi NNW 15.0 mph 20.7 mph N/A   Clear
6:56 AM 33.1 °F 24.9 °F 10.0 °F 38% 30.34 in 10.0 mi NW 10.4 mph - N/A   Clear
7:56 AM 34.0 °F 26.0 °F 9.0 °F 35% 30.36 in 10.0 mi NNW 10.4 mph - N/A   Clear
8:56 AM 35.1 °F 27.4 °F 8.1 °F 33% 30.38 in 10.0 mi North 10.4 mph - N/A   Clear
9:56 AM 37.0 °F 31.6 °F 9.0 °F 31% 30.39 in 10.0 mi North 6.9 mph - N/A   Clear
10:56 AM 39.0 °F 33.4 °F 10.0 °F 30% 30.39 in 10.0 mi NW 8.1 mph - N/A   Clear
11:56 AM 41.0 °F 37.1 °F 12.0 °F 31% 30.37 in 10.0 mi Variable 5.8 mph - N/A   Clear
12:56 PM 44.1 °F 40.1 °F 8.1 °F 23% 30.36 in 10.0 mi Variable 6.9 mph - N/A   Clear
1:56 PM 46.9 °F - 10.0 °F 22% 30.33 in 10.0 mi Variable 5.8 mph - N/A   Clear
2:56 PM 48.9 °F - 10.0 °F 21% 30.31 in 10.0 mi North 9.2 mph - N/A   Clear
3:56 PM 51.1 °F - 12.0 °F 21% 30.29 in 10.0 mi Variable 3.5 mph - N/A   Clear
4:56 PM 51.1 °F - 9.0 °F 18% 30.27 in 10.0 mi Calm Calm - N/A   Clear
5:56 PM 53.1 °F - 10.9 °F 19% 30.26 in 10.0 mi North 3.5 mph - N/A   Clear
6:56 PM 48.9 °F - 15.1 °F 26% 30.23 in 10.0 mi East 4.6 mph - N/A   Clear
7:56 PM 48.0 °F - 14.0 °F 26% 30.22 in 10.0 mi Calm Calm - N/A   Clear
8:56 PM 44.1 °F - 18.0 °F 35% 30.22 in 10.0 mi Calm Calm - N/A   Clear
9:56 PM 46.0 °F 44.8 °F 17.1 °F 31% 30.21 in 10.0 mi ESE 3.5 mph - N/A   Clear
10:56 PM 46.0 °F - 16.0 °F 30% 30.20 in 10.0 mi Calm Calm - N/A   Clear
11:56 PM 46.0 °F 41.9 °F 16.0 °F 30% 30.17 in 10.0 mi South 8.1 mph - N/A   Clear